Voltar ao catálogo

STARLINK-30278

AtivoComunicaçõesVLEO
NORAD 57668·PAYLOAD·🇺🇸 United States

Lançado Aug 22, 2023 de Vandenberg Space Force Base

Loading…

Próximas Passagens (próximas 24 horas)

TLE

AtualizadoSource: CelesTrak SupGP

Época: Sep 15, 2026, 02:31 UTC

1 57668C 23124F   26258.10534722 -.00016178  00000+0 -47820-3 0  2587
2 57668  53.1589  44.9130 0001139  90.1983 325.5766 15.34385234    13

Acompanhe STARLINK-30278 em tempo real com AllMySat

Download on the App Store